Time,TemperatureF,DewpointF,PressureIn,WindDirection,WindDirectionDegrees,WindSpeedMPH,WindSpeedGustMPH,Humidity,HourlyPrecipIn,Conditions,Clouds,dailyrainin,SolarRadiationWatts/m^2,SoftwareType,DateUTC
2014-01-20 00:22:00,46.0,46.0,-100.00,WSW,242,1.0,-999.0,98,0.00,,,-99.99,0.000000,,2014-01-20 05:22:00,
2014-01-20 00:32:00,46.0,46.0,-100.00,WSW,242,1.0,-999.0,98,0.00,,,-99.99,0.000000,,2014-01-20 05:32:00,
2014-01-20 00:52:00,46.0,46.0,-100.00,SE,124,0.0,-999.0,98,0.00,,,-99.99,0.000000,,2014-01-20 05:52:00,
2014-01-20 01:22:00,46.0,45.0,-100.00,West,271,1.0,-999.0,98,0.00,,,-99.99,0.000000,,2014-01-20 06:22:00,
2014-01-20 01:52:00,45.0,45.0,-100.00,SE,133,0.0,-999.0,98,0.00,,,-99.99,0.000000,,2014-01-20 06:52:00,
2014-01-20 02:22:00,45.0,44.0,-100.00,SW,225,1.0,-999.0,98,0.00,,,-99.99,0.000000,,2014-01-20 07:22:00,
2014-01-20 02:52:00,45.0,44.0,-100.00,West,277,0.0,-999.0,98,0.00,,,-99.99,0.000000,,2014-01-20 07:52:00,
2014-01-20 03:22:00,45.0,44.0,-100.00,SW,226,1.0,-999.0,98,0.00,,,-99.99,0.000000,,2014-01-20 08:22:00,
2014-01-20 03:52:00,46.0,46.0,-100.00,WNW,292,1.0,-999.0,98,0.00,,,-99.99,0.000000,,2014-01-20 08:52:00,
2014-01-20 04:22:00,46.0,46.0,-100.00,SW,232,1.0,-999.0,98,0.00,,,-99.99,0.000000,,2014-01-20 09:22:00,
2014-01-20 04:53:00,45.0,44.0,-100.00,SW,222,1.0,-999.0,98,0.00,,,-99.99,0.000000,,2014-01-20 09:53:00,
2014-01-20 05:23:00,44.0,44.0,-100.00,SW,232,1.0,-999.0,98,0.00,,,-99.99,0.000000,,2014-01-20 10:23:00,
2014-01-20 05:53:00,44.0,44.0,-100.00,WSW,251,1.0,-999.0,98,0.00,,,-99.99,0.000000,,2014-01-20 10:53:00,
2014-01-20 06:22:00,44.0,43.0,-100.00,SW,227,1.0,-999.0,98,0.00,,,-99.99,0.000000,,2014-01-20 11:22:00,
2014-01-20 06:42:00,43.0,42.0,-100.00,WSW,238,1.0,-999.0,98,0.00,,,-99.99,0.000000,,2014-01-20 11:42:00,
2014-01-20 06:53:00,43.0,42.0,-100.00,West,279,1.0,-999.0,98,0.00,,,-99.99,0.000000,,2014-01-20 11:53:00,
2014-01-20 07:22:00,42.0,41.0,-100.00,East,87,0.0,-999.0,98,0.00,,,-99.99,0.000000,,2014-01-20 12:22:00,
2014-01-20 07:52:00,42.0,42.0,-100.00,West,262,2.0,-999.0,98,0.00,,,-99.99,4.500000,,2014-01-20 12:52:00,
2014-01-20 08:11:00,42.0,42.0,-100.00,WSW,256,2.0,-999.0,98,0.00,,,-99.99,16.900000,,2014-01-20 13:11:00,
2014-01-20 08:21:00,43.0,42.0,-100.00,WSW,254,2.0,-999.0,98,0.00,,,-99.99,38.099998,,2014-01-20 13:21:00,
2014-01-20 08:42:00,43.0,43.0,-100.00,WSW,251,2.0,-999.0,98,0.00,,,-99.99,69.900002,,2014-01-20 13:42:00,
2014-01-20 09:21:00,47.0,47.0,-100.00,South,184,1.0,-999.0,98,0.00,,,-99.99,317.799988,,2014-01-20 14:21:00,
2014-01-20 09:52:00,49.0,49.0,-100.00,WSW,253,2.0,-999.0,97,0.00,,,-99.99,422.200012,,2014-01-20 14:52:00,
2014-01-20 12:22:00,66.0,47.0,-100.00,WSW,242,2.0,-999.0,50,0.00,,,-99.99,750.000000,,2014-01-20 17:22:00,
2014-01-20 12:53:00,67.0,45.0,-100.00,West,263,2.0,-999.0,45,0.00,,,-99.99,765.000000,,2014-01-20 17:53:00,
2014-01-20 13:22:00,69.0,44.0,-100.00,WSW,245,2.0,-999.0,41,0.00,,,-99.99,765.000000,,2014-01-20 18:22:00,
2014-01-20 13:52:00,70.0,46.0,-100.00,WSW,250,2.0,-999.0,41,0.00,,,-99.99,746.000000,,2014-01-20 18:52:00,
2014-01-20 14:22:00,70.0,46.0,-100.00,WSW,249,3.0,-999.0,42,0.00,,,-99.99,710.000000,,2014-01-20 19:22:00,
2014-01-20 14:52:00,71.0,48.0,-100.00,WSW,248,2.0,-999.0,43,0.00,,,-99.99,656.900024,,2014-01-20 19:52:00,
2014-01-20 15:22:00,72.0,47.0,-100.00,WSW,241,2.0,-999.0,42,0.00,,,-99.99,593.000000,,2014-01-20 20:22:00,
2014-01-20 15:52:00,72.0,48.0,-100.00,WSW,248,2.0,-999.0,43,0.00,,,-99.99,508.600006,,2014-01-20 20:52:00,
2014-01-20 16:22:00,71.0,48.0,-100.00,WSW,249,2.0,-999.0,44,0.00,,,-99.99,410.899994,,2014-01-20 21:22:00,
2014-01-20 16:54:00,68.0,49.0,-100.00,West,259,2.0,-999.0,49,0.00,,,-99.99,232.899994,,2014-01-20 21:54:00,
2014-01-20 17:23:00,65.0,50.0,-100.00,WSW,255,1.0,-999.0,57,0.00,,,-99.99,56.200001,,2014-01-20 22:23:00,
2014-01-20 18:22:00,59.0,49.0,-100.00,WSW,247,0.0,-999.0,70,0.00,,,-99.99,3.700000,,2014-01-20 23:22:00,
2014-01-20 18:53:00,55.0,49.0,-100.00,East,91,0.0,-999.0,79,0.00,,,-99.99,0.000000,,2014-01-20 23:53:00,
2014-01-20 19:22:00,53.0,49.0,-100.00,NNE,23,0.0,-999.0,86,0.00,,,-99.99,0.000000,,2014-01-21 00:22:00,
2014-01-20 19:42:00,52.0,48.0,-100.00,ESE,121,0.0,-999.0,87,0.00,,,-99.99,0.000000,,2014-01-21 00:42:00,
2014-01-20 19:52:00,51.0,48.0,-100.00,ENE,74,0.0,-999.0,89,0.00,,,-99.99,0.000000,,2014-01-21 00:52:00,
2014-01-20 20:22:00,50.0,48.0,-100.00,NNW,346,0.0,-999.0,91,0.00,,,-99.99,0.000000,,2014-01-21 01:22:00,
2014-01-20 20:52:00,50.0,48.0,-100.00,WNW,298,1.0,-999.0,91,0.00,,,-99.99,0.000000,,2014-01-21 01:52:00,
2014-01-20 21:22:00,50.0,48.0,-100.00,NW,308,1.0,-999.0,92,0.00,,,-99.99,0.000000,,2014-01-21 02:22:00,
2014-01-20 21:52:00,50.0,48.0,-100.00,NW,324,1.0,-999.0,93,0.00,,,-99.99,0.000000,,2014-01-21 02:52:00,
2014-01-20 22:22:00,49.0,48.0,-100.00,WNW,300,0.0,-999.0,94,0.00,,,-99.99,0.000000,,2014-01-21 03:22:00,
2014-01-20 22:53:00,49.0,48.0,-100.00,WNW,289,0.0,-999.0,95,0.00,,,-99.99,0.000000,,2014-01-21 03:53:00,
2014-01-20 23:23:00,49.0,48.0,-100.00,WNW,290,0.0,-999.0,96,0.00,,,-99.99,0.000000,,2014-01-21 04:23:00,
2014-01-20 23:53:00,48.0,47.0,-100.00,North,357,0.0,-999.0,96,0.00,,,-99.99,0.000000,,2014-01-21 04:53:00,